Location: *
(45.9500°N, 9.0833°E)
Time: 04:58:10
(UTC+00:00)

SR - Pass Details

Date: 14 June 2021
Orbit: 577 x 878 km, 66.7° (Epoch: 24 July)

Event Time Altitude Azimuth Distance (km) Brightness Sun altitude
Rises 16:22:38 0° 185° (S) 3,430 ? 27.0°
Reaches altitude 10° 16:25:15 10° 177° (S) 2,514 ? 26.5°
Maximum altitude 16:30:35 37° 112° (ESE) 1,337 ? 25.6°
Drops below altitude 10° 16:35:55 10° 47° (NE) 2,516 ? 24.7°
Sets 16:38:32 0° 40° (NE) 3,434 ? 24.2°
